Terminal Aerodrome Forecast
Issued by NWS Charleston, WV

Current Version | Previous Version | Graphics & Text | Print | Product List | Glossary On
Versions: 1 2 3 4 5 6 7 8 9 10 11 12 13 14 15 16 17 18 19 20
090
FTUS41 KRLX 030538
TAFPKB
TAF
KPKB 030538Z 0306/0406 15012G21KT 6SM SHRA OVC080
     FM031000 17014G22KT 3SM SHRA OVC025
     FM031400 18010G16KT 6SM SHRA BKN025
     FM031600 20010G16KT P6SM BKN025
     FM031800 20011G18KT P6SM BKN040
     FM032200 22010G16KT P6SM SCT050=

USA.gov is the U.S. government's official web portal to all federal, state and local government web resources and services.